Location: Altleiningen
(49.5078°N, 8.0741°E)
Time: 16:18:54
(UTC+00:00)

Spot 4 - Pass Details

Date: 14 June 2025
Orbit: 698 x 716 km, 98.3° (Epoch: 20 July)

Event Time Altitude Azimuth Distance (km) Brightness Sun altitude
Exits shadow 22:30:33 27° 158° (SSE) 1,347 4.7 -16.1°
Maximum altitude 22:33:11 81° 74° (ENE) 729 3.8 -16.2°
Drops below altitude 10° 22:38:02 10° 347° (NNW) 2,210 7.8 -16.3°
Sets 22:40:19 0° 347° (NNW) 3,136 9.0 -16.4°
